Theta_e
317 316 315 312 309 307 306 309 319 324 325 324 322 321 321 321 321 321 320 320 320 320 321 322 321 318 314 313 315 319 321 321 321 320 320 322 324 324 323 321 321 320 321 322 323 323 323
317 314 310 307 306 308 321 323 322 322 322 321 321 321 321 321 321 321 321 321 321 320 320 320 320 321 322 318 314 317 320 321 321 320 320 321 323 323 323 322 321 322 322 321 322 322 321
313 309 308 309 318 323 322 321 321 322 322 321 321 320 318 317 318 318 318 319 320 318 320 319 320 320 320 320 317 316 317 319 320 319 320 320 322 323 322 321 322 322 320 318 319 321 320
311 313 317 323 323 321 321 321 322 321 320 317 315 313 311 309 309 309 309 310 311 310 314 318 314 316 318 320 319 316 315 318 316 317 318 320 321 320 321 322 321 320 318 319 318 319 320
316 321 322 322 321 322 321 321 319 316 315 313 310 307 304 303 304 305 305 305 306 307 308 310 309 310 315 318 320 320 319 318 318 317 318 320 320 319 320 319 316 316 318 318 318 318 316
320 321 320 321 320 321 320 319 311 306 304 303 303 302 302 302 302 303 304 304 305 306 306 306 306 311 313 317 319 319 320 319 318 318 318 318 319 314 314 316 316 315 317 317 318 317 319
315 318 318 317 315 314 311 308 308 301 300 300 301 300 300 300 301 303 304 305 310 311 318 311 316 312 315 318 321 320 320 320 318 319 317 317 315 316 315 315 317 319 319 318 317 317 319
312 310 307 305 304 303 302 301 300 299 298 299 299 300 300 300 301 302 304 306 311 313 311 307 308 311 310 310 312 313 315 319 319 316 317 315 316 316 316 317 317 318 318 318 317 318 318
307 305 301 299 298 298 299 299 298 298 298 299 299 299 299 300 301 305 305 307 309 309 311 307 311 311 312 310 312 315 319 317 320 318 317 315 316 317 317 317 318 317 318 318 318 317 317
302 302 299 298 297 297 297 297 297 298 298 299 298 299 299 300 304 306 306 304 307 312 301 306 310 311 315 316 318 311 322 318 319 318 318 316 316 316 317 317 317 318 316 317 317 316 318
301 299 299 298 298 298 297 297 297 298 298 298 298 298 299 299 305 303 303 306 312 316 303 308 308 309 310 310 306 311 316 322 320 318 318 315 318 318 319 320 316 319 317 317 317 319 317
301 301 300 299 298 297 297 297 297 297 297 297 297 298 298 299 301 301 305 311 316 302 303 306 306 305 306 306 305 309 310 313 315 316 316 318 318 318 317 318 317 316 318 318 318 318 320
303 300 298 297 297 296 296 296 296 296 296 297 297 297 298 299 301 302 307 313 301 301 307 304 304 304 303 302 303 304 308 305 304 312 315 315 316 316 314 315 316 315 316 319 321 320 322
299 297 297 296 295 295 295 295 295 295 296 296 296 297 297 298 299 305 311 299 299 309 305 304 304 304 303 301 302 302 311 309 303 305 311 313 313 316 310 315 317 317 317 319 323 321 321
297 296 295 295 294 294 294 294 295 295 295 296 296 297 297 298 299 308 306 295 298 308 304 304 302 301 301 301 302 300 302 305 302 301 306 312 310 309 310 312 312 312 318 317 320 320 322
296 295 294 294 294 294 294 295 295 295 295 296 297 298 299 297 299 307 299 304 306 304 304 303 302 302 302 302 301 300 300 302 303 303 303 309 304 308 311 308 309 314 312 318 319 318 321
294 295 295 295 295 295 295 295 296 296 296 298 299 302 300 297 300 299 294 300 303 305 305 303 303 303 303 303 302 302 301 302 303 302 303 305 309 307 306 309 309 307 305 312 319 320 318
294 295 294 294 294 294 294 294 295 296 297 300 300 299 303 297 298 296 296 302 304 304 304 304 303 304 303 303 303 302 302 302 304 303 302 302 306 306 303 304 304 304 308 313 315 313 315
296 294 294 294 294 294 294 294 294 295 296 298 302 302 301 301 295 298 302 303 303 302 301 302 302 302 301 302 303 302 303 304 303 303 304 304 302 303 301 304 305 306 305 307 307 310 310
296 294 294 294 294 294 294 294 295 295 297 298 300 295 301 302 301 300 301 301 302 302 301 301 301 301 300 301 301 301 301 303 302 302 303 304 304 303 302 302 304 305 305 304 305 306 306
296 294 294 294 294 295 295 295 295 295 296 298 299 297 299 295 299 299 299 301 301 301 301 302 300 299 300 301 301 301 301 301 302 302 303 302 303 303 303 303 303 304 303 303 303 304 305
296 295 295 294 295 295 295 295 295 295 295 296 299 299 298 298 298 299 300 301 301 298 299 300 298 299 299 300 301 300 299 300 301 301 301 300 302 301 302 301 301 302 302 301 302 303 304
293 295 294 295 295 296 296 296 296 296 295 296 297 298 298 295 296 297 298 298 297 297 298 299 298 298 298 298 299 298 297 298 299 300 300 300 301 302 302 301 301 302 301 301 301 302 303
293 292 294 294 296 296 296 296 296 296 296 295 296 296 296 290 295 295 297 297 296 297 297 298 298 298 298 298 296 296 297 298 298 298 300 300 301 301 301 301 301 301 300 300 300 300 302
295 293 293 294 294 295 296 296 296 295 296 296 296 296 296 289 295 296 296 296 296 296 296 296 297 297 297 296 295 295 294 297 298 298 299 300 300 300 301 301 300 301 300 300 300 300 300
296 296 295 294 294 295 295 296 296 295 295 295 295 296 295 294 290 296 295 296 294 295 295 297 297 295 297 296 294 290 291 297 298 299 300 298 299 301 293 299 298 300 300 301 301 301 301
295 295 296 297 297 296 296 296 296 296 295 294 293 293 294 294 294 295 295 294 296 296 294 295 296 297 298 292 293 291 293 298 298 298 298 298 300 302 302 303 302 300 301 301 301 300 301
293 294 294 295 295 295 295 295 294 294 293 291 290 290 289 290 290 291 292 294 295 295 292 294 292 293 293 292 290 290 291 297 299 298 300 300 300 300 300 300 300 301 300 301 301 301 302
291 293 293 293 293 294 294 293 292 291 293 294 294 295 295 295 295 295 295 295 295 294 293 294 294 296 296 290 292 297 295 293 297 298 297 297 297 298 299 299 299 300 300 300 300 300 300
Wind_Speed
30 27 25 23 21 18 15 14 11 8 5 3 4 7 8 9 10 11 11 12 12 12 13 13 13 14 12 6 4 7 7 6 6 7 6 7 4 5 2 3 8 3 2 7 20 22 23
31 29 27 24 22 20 17 12 8 7 7 5 6 8 10 11 12 14 15 15 15 15 14 14 14 13 12 5 7 8 10 9 8 9 7 6 3 7 5 4 1 5 12 18 18 27 15
32 30 28 26 24 20 15 11 9 8 6 6 6 9 11 12 14 16 17 19 19 17 16 16 15 15 15 16 10 12 14 15 14 13 13 8 7 5 7 5 4 7 7 9 5 3 5
33 31 29 25 22 17 14 11 9 8 7 8 10 12 14 14 14 16 17 18 18 17 16 16 15 14 12 11 13 16 18 22 19 19 17 11 9 9 4 6 7 6 3 4 5 11 5
33 32 29 25 21 17 16 13 10 9 9 10 12 13 14 14 13 15 15 14 14 13 12 13 12 8 12 9 9 8 10 13 11 13 15 10 9 4 2 3 5 5 5 4 9 8 6
37 32 27 24 21 19 15 12 10 9 8 9 9 10 10 10 12 12 12 10 8 7 7 7 10 5 9 5 9 12 9 11 8 5 6 8 4 3 3 4 5 6 5 4 3 7 17
31 30 26 23 20 17 14 12 12 10 8 7 7 6 7 8 10 10 8 4 2 4 2 2 1 6 9 9 10 4 5 7 5 1 3 3 4 4 11 8 2 3 5 10 4 5 10
25 24 20 19 18 17 14 13 12 10 7 4 3 4 5 6 7 8 7 4 5 3 7 3 10 18 20 19 13 20 15 7 3 3 1 3 4 9 1 4 5 3 6 11 8 5 4
17 19 20 16 17 16 14 13 11 8 4 2 3 4 4 4 4 5 10 9 4 3 2 5 6 9 7 6 3 11 14 3 4 3 4 6 4 1 2 3 5 4 4 5 11 4 4
15 16 17 16 14 13 12 10 8 5 4 4 4 3 3 3 1 4 7 5 2 3 4 9 5 8 8 6 3 14 7 2 2 5 4 5 3 2 3 1 1 10 5 7 7 5 4
21 18 16 15 12 10 9 7 5 5 4 4 3 2 2 3 4 5 3 2 3 2 4 8 7 8 11 8 10 12 14 2 1 4 1 6 2 7 7 6 5 13 5 7 8 9 5
20 17 15 13 11 9 8 6 5 4 4 4 3 2 3 5 5 4 3 4 2 6 1 6 7 7 6 14 13 15 9 10 4 4 3 3 6 2 3 2 3 6 4 5 5 4 5
16 15 12 11 8 6 6 5 4 4 4 5 4 3 4 6 4 3 5 3 5 5 4 6 4 6 4 7 8 10 4 10 5 7 6 7 4 3 6 5 5 10 5 4 4 0 7
15 14 10 9 8 6 5 5 4 3 4 4 4 5 6 6 4 6 7 5 5 1 3 3 3 3 5 7 6 9 4 5 8 6 3 4 5 6 5 3 3 4 2 3 6 4 11
13 12 10 9 8 6 6 6 6 6 6 7 7 7 6 6 4 7 3 5 6 2 2 4 3 5 5 5 4 6 4 2 4 7 4 6 4 6 7 3 2 4 3 3 4 1 1
12 12 10 9 8 7 4 7 6 6 7 8 9 7 5 5 6 7 5 4 2 2 2 2 3 2 2 6 5 6 3 3 4 6 2 3 6 3 4 8 4 4 4 4 3 3 5
12 11 10 9 7 6 4 6 5 6 8 10 9 3 4 6 7 5 4 3 2 4 6 3 2 2 2 2 1 3 4 2 5 6 4 3 2 4 4 2 3 5 4 3 2 3 5
11 10 8 7 6 5 3 3 4 5 7 9 4 4 4 6 6 3 3 3 2 4 7 5 4 2 2 1 0 2 3 5 11 5 4 4 3 5 5 13 11 3 3 2 5 4 3
9 8 7 6 5 5 3 3 4 4 6 8 5 4 6 2 4 2 1 2 5 4 5 4 3 5 4 1 2 3 2 3 16 10 4 6 2 6 9 2 6 4 4 5 6 2 5
8 8 7 6 5 5 3 4 4 4 6 6 4 3 7 8 7 4 3 2 3 6 4 4 5 7 5 3 3 2 3 4 17 12 17 4 3 6 10 11 5 14 18 14 9 7 10
7 6 7 6 5 5 4 5 6 3 5 4 3 3 3 1 5 4 3 2 3 3 4 8 5 5 2 1 4 2 5 5 6 13 5 1 4 6 10 9 11 18 22 18 18 17 16
5 6 6 6 6 6 5 6 6 3 4 3 4 5 7 4 2 3 3 2 3 2 3 3 4 4 3 1 2 3 4 1 5 6 2 3 5 5 21 12 17 24 23 13 18 19 20
7 8 7 6 5 5 5 5 6 5 1 5 10 11 7 1 1 2 1 4 4 2 4 6 4 2 3 4 6 16 20 19 19 11 11 10 10 8 25 8 11 20 18 13 12 14 14
7 9 11 8 7 4 3 1 4 4 6 8 11 7 4 1 1 2 4 4 2 2 1 5 6 3 3 13 22 17 19 27 26 24 24 14 13 9 16 11 16 10 2 8 10 14 12
6 7 8 8 6 5 4 0 1 2 5 5 8 3 3 2 3 2 3 2 1 3 4 10 11 8 9 13 3 6 4 4 5 9 13 20 11 5 8 11 18 20 12 5 1 8 4
7 5 7 9 8 6 4 4 2 2 2 3 3 3 3 8 4 5 5 4 2 2 3 3 3 13 2 2 2 1 2 3 4 5 2 4 10 7 1 4 6 2 1 4 6 16 9
9 9 9 9 8 7 6 5 5 4 4 3 2 4 4 3 6 10 4 4 6 3 1 3 4 4 1 2 1 2 4 3 4 4 3 4 3 12 11 9 8 6 14 24 13 14 7
11 13 12 11 10 10 9 9 8 7 7 4 3 4 5 2 4 9 10 11 8 5 3 1 5 1 1 1 2 3 3 4 3 4 3 3 3 3 6 7 15 10 4 9 13 8 11
9 10 9 13 15 14 12 10 7 6 7 4 3 2 2 6 4 11 18 18 16 15 10 7 4 4 6 2 2 2 2 2 5 13 6 8 9 4 8 11 13 18 17 24 27 27 33
Wind_Direction
206 204 201 196 191 190 182 174 174 185 205 248 296 309 310 312 312 312 312 313 316 317 319 326 334 340 353 334 279 273 271 293 317 339 348 347 31 12 352 301 332 186 276 293 299 302 301
205 203 198 194 188 182 179 182 191 208 222 239 276 300 304 306 306 306 302 300 301 300 307 311 318 324 326 310 286 274 255 266 289 301 311 326 319 333 283 281 199 289 294 292 306 300 281
204 200 193 188 183 183 188 193 200 211 229 252 278 293 298 297 300 303 302 294 291 292 289 292 301 309 300 276 269 256 266 270 272 277 279 285 300 305 319 304 299 291 314 330 298 324 301
201 196 189 187 187 190 195 191 193 202 235 269 286 293 295 293 297 296 294 293 291 285 279 280 289 293 277 276 252 255 263 276 270 268 265 281 275 292 260 309 331 343 54 338 305 337 2
198 192 189 191 195 196 194 187 205 226 241 262 281 289 292 294 297 296 297 298 290 287 277 271 275 276 269 286 296 275 271 273 286 272 247 258 260 246 259 46 355 359 260 262 323 349 349
198 189 192 192 191 189 196 216 229 237 247 259 272 279 289 293 298 304 305 304 297 296 270 264 250 281 263 311 303 276 287 268 273 275 247 250 207 99 52 93 246 259 278 261 264 303 311
180 182 186 187 191 199 207 214 234 234 237 243 265 280 288 295 297 311 315 310 296 290 283 240 206 258 291 312 318 248 312 295 285 255 193 24 69 195 223 218 281 283 276 277 273 271 294
173 166 177 188 189 197 199 206 214 217 214 212 242 263 274 291 313 333 353 75 58 304 319 311 286 276 290 295 292 277 302 328 14 257 37 347 241 238 333 264 265 270 280 287 288 262 248
167 170 177 179 178 180 185 194 191 187 186 203 241 251 264 267 316 351 50 73 68 354 309 334 352 12 0 349 328 338 348 243 199 227 227 205 243 210 242 294 303 254 216 267 272 304 249
152 169 178 169 174 164 160 165 176 180 204 223 240 242 248 236 203 69 57 46 59 24 64 327 7 15 358 337 318 356 352 256 323 230 233 232 289 223 318 326 201 297 208 267 290 342 280
167 168 166 167 163 159 164 172 191 200 209 227 229 225 192 180 132 91 49 93 94 51 61 336 344 356 38 76 327 10 28 198 261 278 20 257 288 297 303 260 195 283 279 270 291 291 315
167 170 162 159 165 174 173 180 193 202 217 226 218 191 150 136 116 98 110 125 69 47 248 348 358 359 20 5 2 347 7 39 40 352 28 281 292 229 235 292 219 293 333 278 239 236 258
161 162 160 151 158 163 165 181 187 187 206 211 189 167 163 139 116 125 133 103 43 113 346 338 337 3 66 352 356 11 46 45 27 11 8 339 326 23 20 3 356 31 30 327 318 261 253
169 150 154 154 165 158 164 172 170 166 171 177 166 150 155 139 127 143 140 58 82 92 34 307 2 20 65 360 1 347 32 29 14 25 337 348 335 6 359 13 323 302 190 196 291 292 299
154 143 164 158 151 145 150 152 149 151 157 157 150 151 128 128 134 145 134 60 176 196 312 353 21 63 357 352 25 19 34 97 45 9 28 351 274 329 43 350 18 310 249 236 253 3 355
141 144 148 139 134 135 132 129 137 147 144 151 156 145 81 114 131 137 76 132 120 11 349 66 87 42 53 349 32 23 10 33 3 7 318 332 300 285 349 348 300 221 281 353 354 306 276
131 134 129 126 126 130 125 121 132 139 147 145 158 115 64 116 128 78 114 143 108 24 33 80 120 83 70 69 347 332 302 52 354 332 15 331 175 283 9 58 312 314 320 355 253 201 220
125 124 129 129 130 129 121 115 141 147 151 159 129 60 68 133 56 43 99 119 114 4 26 42 88 77 133 102 3 258 267 35 13 8 13 332 293 294 261 281 269 212 320 214 246 301 295
122 125 127 128 131 122 123 128 140 158 165 153 92 91 50 145 119 77 116 72 73 45 35 39 70 52 11 129 307 219 351 67 28 34 11 339 321 325 320 355 13 25 12 336 333 175 237
126 119 122 117 121 113 126 114 104 137 141 150 113 62 41 58 71 102 128 85 108 53 61 52 69 68 46 7 14 323 316 360 347 348 323 295 227 201 255 269 307 288 291 291 267 262 280
135 126 119 124 123 110 109 103 100 122 134 130 82 95 104 57 23 101 116 101 103 62 44 39 82 75 56 316 343 340 20 335 335 304 281 221 256 255 263 276 282 273 268 262 261 260 251
165 157 134 142 137 123 97 77 81 86 127 138 101 133 96 93 129 116 29 83 90 26 51 41 81 3 32 337 28 312 343 294 230 302 334 334 283 318 288 282 269 269 266 265 248 250 255
196 188 172 170 155 131 101 73 67 56 96 92 107 120 139 328 124 98 143 94 94 56 46 98 68 30 327 247 274 293 286 264 249 257 260 250 265 265 270 272 284 277 265 252 251 234 238
204 199 197 190 186 154 115 66 46 34 59 122 127 139 124 231 130 160 113 85 96 90 294 286 318 154 243 306 309 297 267 250 241 241 230 239 230 239 267 288 264 252 189 328 290 264 248
181 185 194 192 194 188 178 200 20 77 109 118 122 117 109 134 142 126 124 122 313 281 249 268 274 272 303 313 325 327 314 333 267 232 230 226 242 253 247 246 279 295 277 225 190 303 290
163 153 178 188 193 186 188 217 216 158 140 131 131 129 126 126 243 137 143 168 182 208 316 256 317 318 309 159 110 163 283 293 290 306 184 190 215 230 162 239 245 285 127 359 348 287 231
190 185 189 191 196 193 211 222 238 253 261 267 239 214 207 166 173 155 157 168 164 158 206 303 347 352 111 91 131 197 253 241 262 253 263 271 234 231 246 264 259 241 257 276 268 287 140
220 220 216 218 220 224 235 243 246 255 269 252 213 200 226 212 239 227 226 217 201 189 151 139 342 313 56 85 139 252 228 245 287 241 245 248 277 254 257 248 270 241 283 216 254 246 217
233 219 217 229 237 239 246 246 233 219 227 209 208 128 294 274 253 286 280 267 255 250 235 221 213 157 216 109 220 269 268 277 247 279 208 258 214 235 217 249 269 281 266 278 293 290 290